{"data":{"norad_id":64815,"intl_designator":"2025-150AB","name":"STARLINK-34667","alt_names":[],"object_type":"PAYLOAD","status":"ACTIVE","operator":null,"country":"US","launch_date":"2025-07-16","launch_site_code":"AFWTR","launch_vehicle":null,"mission":null,"orbit_class":"UNKNOWN","rcs_meters":null,"size_class":null,"mass_kg":null,"dimensions":null,"purposes":["comms"],"wikipedia_slug":null,"has_3d_model":false,"image_url":null,"decayed_at":null,"tle_current":{"epoch":"2026-05-25T04:15:33.522048Z","epoch_age_seconds":63209,"freshness":"FRESH","line1":"1 64815U 25150AB  26145.17747132  .00003084  00000+0  26610-3 0  9999","line2":"2 64815  70.0002 301.6064 0002544 270.3220  89.7648 14.98336581 47973","mean_motion":14.98336581,"eccentricity":0.0002544,"inclination_deg":70.0002,"raan_deg":301.6064,"arg_perigee_deg":270.322,"mean_anomaly_deg":89.7648,"bstar":0.0002661,"rev_number":4797,"period_min":96.106577004142,"perigee_km":570.26741592514,"apogee_km":573.8036637134,"semimajor_km":6950.1725398193,"source":"CELESTRAK","updated_at":"2026-05-25T13:38:20.570641Z"}}}